Theta_e
310 311 311 312 314 316 318 319 323 339 338 338 339 339 339 339 340 340 339 333 336 341 346 347 346 345 344 341 339 339 340 340 340 341 339 338 337 337 336 336 335 335 334
309 309 309 309 310 312 313 315 316 318 325 339 337 337 338 339 339 340 340 334 332 336 340 344 347 346 346 343 339 339 339 340 340 340 339 337 337 336 335 335 334 334 334
308 308 307 307 309 310 311 312 314 316 318 331 338 336 337 338 339 338 338 337 332 330 334 340 342 344 344 344 341 339 339 338 338 339 338 337 336 335 334 334 334 334 333
305 305 304 305 307 308 308 309 311 312 314 318 329 336 336 336 338 337 339 338 336 333 330 334 337 340 342 343 342 341 340 338 338 338 335 336 336 335 334 334 334 334 333
303 301 300 300 301 301 302 305 307 310 310 313 318 328 336 336 336 338 336 338 338 336 333 330 331 334 338 340 342 342 341 340 339 338 335 335 334 335 334 333 333 333 333
301 299 298 297 299 299 299 301 303 306 307 311 314 319 326 334 336 335 336 338 337 337 337 336 332 332 331 336 339 342 343 342 340 339 337 336 335 335 334 333 333 333 333
297 296 295 295 297 297 298 299 299 299 302 307 310 311 316 327 333 335 335 336 335 335 336 337 333 333 333 332 336 341 344 343 341 340 337 336 335 334 333 333 332 332 333
296 295 295 295 297 297 298 298 299 298 300 303 304 308 307 316 326 332 334 334 332 334 334 335 336 335 336 336 335 336 340 342 341 340 337 335 333 334 333 332 332 332 332
294 294 294 294 294 295 296 297 298 299 297 300 303 304 307 308 316 325 328 332 333 331 331 332 335 337 337 336 333 332 328 330 336 338 337 335 334 334 333 333 332 331 331
293 293 292 292 292 292 293 295 298 299 299 297 301 304 308 311 312 312 323 328 331 330 326 323 332 334 337 336 333 329 321 321 326 334 336 335 334 334 333 333 332 331 330
291 291 291 290 290 291 292 293 295 296 298 299 299 301 303 308 314 315 312 317 327 327 331 332 333 333 335 335 336 330 319 317 320 328 333 334 334 334 333 333 332 331 331
289 290 290 289 290 290 291 293 295 296 297 299 301 300 302 303 309 314 314 315 317 321 325 329 332 333 334 334 333 324 316 315 317 323 328 331 332 333 333 333 332 332 331
287 288 288 288 288 290 290 292 294 296 298 298 300 301 302 305 309 312 316 315 314 318 323 328 330 331 334 334 333 322 316 313 315 318 323 326 327 329 330 331 332 332 332
287 288 287 287 287 288 289 290 293 297 299 300 300 302 304 306 309 310 315 315 312 314 315 317 326 328 332 333 331 315 324 312 312 315 318 320 322 323 324 326 327 328 329
287 287 287 286 286 287 287 288 289 292 296 303 303 304 306 308 311 314 316 319 314 309 311 313 312 317 325 329 330 332 329 314 310 311 312 315 318 319 320 321 322 323 325
286 285 286 285 285 285 286 287 287 288 290 291 294 295 296 298 306 308 316 318 317 314 309 313 314 315 319 329 326 330 331 315 310 308 309 310 313 316 316 317 317 318 320
285 283 284 284 284 283 284 284 285 286 286 288 288 289 289 293 295 297 300 306 314 316 313 316 319 321 319 325 329 331 331 324 318 307 306 307 308 311 312 312 313 314 315
284 283 282 283 283 283 282 282 283 283 283 283 285 286 285 288 288 290 292 295 299 304 307 312 316 318 320 317 316 315 316 331 326 311 305 305 306 305 306 306 307 307 309
282 282 280 280 282 282 282 281 281 281 281 281 282 284 284 284 284 285 286 288 291 300 303 309 314 312 314 308 313 308 309 304 304 312 306 306 305 304 301 302 304 304 303
280 280 279 278 280 282 281 280 279 279 279 280 280 281 284 284 283 283 283 283 286 289 292 293 298 297 297 298 298 299 302 298 295 295 307 305 303 300 300 299 299 301 302
280 279 278 278 278 280 281 280 279 277 277 277 278 278 280 285 285 285 283 281 282 282 282 283 283 283 283 285 287 292 297 299 294 292 297 301 299 296 296 295 296 296 297
279 279 278 277 277 279 283 282 279 277 276 276 275 276 277 280 281 283 284 284 283 280 279 280 279 278 279 281 285 287 291 293 290 290 289 291 295 292 292 292 292 292 293
281 279 278 278 277 277 281 282 281 277 275 275 275 275 275 276 278 280 281 282 282 283 281 281 278 278 278 280 282 285 287 287 285 285 288 286 289 289 291 292 292 292 292
281 280 279 278 277 278 279 280 280 278 276 275 275 275 275 275 276 276 278 278 278 279 281 280 280 281 281 282 282 283 285 285 285 283 285 285 285 285 288 291 292 292 291
281 280 280 278 277 277 279 279 278 277 276 275 276 276 276 275 278 278 275 275 275 277 281 282 282 282 283 283 283 282 281 283 282 280 281 284 284 284 285 285 288 290 290
282 282 280 279 278 276 280 279 277 276 274 274 275 275 278 277 277 277 274 273 272 274 275 276 276 278 280 280 281 281 281 279 280 277 280 282 282 283 283 285 285 285 286
Wind_Speed
7 8 9 9 9 10 9 9 9 6 6 10 10 12 14 12 11 8 5 18 18 17 18 21 21 20 20 20 20 19 19 18 18 19 16 16 15 15 14 14 17 17 16
7 8 9 9 10 10 10 10 11 11 11 6 8 11 14 14 11 12 9 9 15 16 17 21 21 21 22 22 21 19 19 19 19 18 18 16 15 15 14 14 16 18 17
9 9 8 9 9 10 13 11 12 11 10 10 8 9 10 14 13 11 6 6 11 19 20 19 21 21 22 23 22 21 20 18 17 17 16 13 14 15 15 16 17 18 18
13 12 10 10 11 11 10 10 10 11 11 12 9 8 8 11 14 14 7 8 9 10 13 19 20 20 22 24 25 24 22 19 19 19 17 16 14 16 17 17 18 18 19
12 11 9 10 13 10 11 12 11 11 11 12 11 11 8 9 11 12 16 13 11 11 10 17 20 20 20 23 26 26 26 24 22 22 21 22 21 19 18 18 18 18 18
12 10 9 11 12 11 11 11 14 12 13 11 13 12 10 10 9 11 13 12 13 13 13 13 12 12 18 22 25 27 27 26 26 25 24 23 22 21 20 19 19 18 18
13 12 10 12 9 10 11 12 13 14 12 13 11 10 12 13 8 10 11 12 10 13 10 11 10 10 10 21 24 26 27 27 27 26 26 25 23 22 21 21 20 19 18
14 13 13 11 11 9 11 11 12 10 11 9 8 11 9 11 10 11 10 11 14 10 11 9 13 14 13 11 16 25 27 28 28 27 27 26 24 24 23 22 21 20 20
13 13 14 12 12 11 10 11 10 13 10 10 13 7 4 9 4 6 14 12 13 9 5 2 9 14 13 13 15 18 21 23 26 27 27 26 25 25 24 24 23 22 21
13 12 14 14 14 11 12 11 11 11 11 11 9 11 15 14 7 6 4 9 12 13 12 9 13 18 14 10 17 20 21 21 22 26 28 27 26 26 26 25 24 23 23
14 13 14 14 13 10 12 14 13 13 11 11 10 11 12 12 14 13 9 3 5 6 8 10 11 9 13 12 12 17 23 23 23 25 27 28 28 27 27 26 25 25 24
11 13 16 14 13 12 12 12 14 14 13 13 11 12 12 10 9 10 12 6 6 7 9 11 16 13 11 10 15 18 23 25 25 25 26 26 27 28 27 27 26 25 25
12 13 16 15 13 14 14 14 13 15 13 12 14 12 12 14 12 13 13 12 4 3 6 9 9 9 8 7 12 20 24 25 27 26 26 26 26 27 27 26 26 26 25
12 16 15 15 17 16 14 13 11 13 14 13 16 14 12 12 11 13 12 11 10 6 4 4 3 4 6 7 12 16 16 27 28 28 27 26 25 24 24 24 25 25 25
13 16 17 17 17 17 18 17 12 15 17 8 7 9 9 10 12 12 12 10 7 7 9 5 5 5 6 8 16 16 13 24 26 28 27 26 26 24 23 22 22 22 23
15 17 16 17 17 18 17 16 13 16 15 11 8 11 7 7 5 6 9 10 8 8 8 5 6 8 11 9 15 18 16 19 27 26 27 26 26 26 25 25 23 22 21
14 16 17 16 16 18 19 17 17 17 17 15 14 13 13 11 7 8 7 7 4 6 10 7 3 7 10 14 15 14 15 12 14 25 26 27 26 26 25 24 23 22 22
14 15 17 16 17 17 19 20 18 17 17 17 15 15 15 11 12 11 6 8 7 5 3 6 5 4 4 3 3 3 14 10 12 23 25 25 24 21 19 20 20 20 20
14 13 16 17 16 18 18 18 18 18 17 17 17 16 17 17 17 12 12 10 9 7 5 4 4 5 2 3 2 3 12 13 17 12 14 10 9 10 8 9 7 6 6
12 13 14 16 16 16 17 17 18 19 18 17 19 18 18 20 23 16 16 15 12 11 11 10 7 6 4 6 6 3 7 7 11 18 5 10 15 18 16 14 11 3 6
11 10 12 14 16 14 13 16 16 17 18 19 19 19 20 26 34 29 16 18 16 13 12 10 12 9 8 8 9 7 1 6 6 10 10 10 10 10 10 16 16 18 16
9 12 11 15 17 13 26 25 19 14 16 18 17 18 20 26 22 31 31 33 27 16 17 13 11 11 12 10 9 8 4 2 3 10 5 11 9 10 9 10 20 20 19
9 12 14 13 16 18 30 25 25 13 15 17 19 18 17 17 23 17 23 25 27 30 21 14 14 15 14 14 12 10 11 10 6 5 4 7 7 8 7 9 19 21 20
10 11 12 14 13 16 30 28 24 14 14 17 18 20 20 21 24 20 17 17 18 18 19 13 15 14 15 15 14 9 5 4 5 9 6 2 5 2 7 7 19 19 19
7 8 9 12 14 14 30 30 20 13 14 15 15 17 18 19 31 30 17 17 16 17 18 25 25 25 26 29 22 9 12 6 6 7 12 4 5 2 1 7 8 19 18
7 5 8 8 18 14 26 29 22 11 13 11 13 14 28 25 31 32 18 16 16 16 14 14 14 16 19 19 23 15 11 9 7 7 9 5 6 4 3 3 4 4 6
Wind_Direction
328 327 322 318 318 317 311 307 303 267 249 248 236 242 251 233 215 210 224 183 179 189 189 186 185 191 191 190 190 197 198 188 193 187 182 182 182 183 187 186 165 164 165
323 319 323 314 315 313 311 310 308 306 300 234 241 238 247 259 249 220 242 172 184 184 194 187 189 195 195 192 191 197 194 192 195 191 186 183 182 181 182 179 172 170 172
324 327 321 312 309 311 318 313 308 298 288 273 234 241 240 251 258 251 218 182 186 190 189 193 191 192 195 194 193 192 193 193 193 184 172 175 184 181 180 178 176 175 180
345 335 326 323 328 322 309 307 305 298 293 290 278 235 237 242 245 254 230 207 186 190 198 191 195 190 196 197 194 193 195 195 192 184 177 183 190 190 183 181 179 181 183
343 332 329 326 326 320 322 317 307 301 295 293 278 283 230 233 239 242 244 223 191 190 184 202 197 195 191 200 198 197 196 195 193 189 186 192 193 196 187 185 184 185 187
341 348 332 322 318 311 303 303 313 310 309 291 296 289 296 247 225 234 245 239 205 193 182 184 205 201 198 197 202 200 199 195 195 195 194 196 198 194 188 187 189 189 191
339 329 317 312 303 295 297 300 300 306 302 310 291 286 282 274 251 226 231 243 227 214 189 195 185 194 201 200 199 202 202 199 197 199 198 199 199 195 193 191 192 194 196
338 332 324 309 303 296 289 288 288 286 291 288 296 294 275 275 242 239 235 242 247 233 228 193 171 206 186 192 202 203 204 204 200 200 200 200 200 197 195 194 195 197 198
338 334 332 324 322 320 307 291 283 280 280 287 279 277 266 243 263 204 229 230 234 225 179 200 234 195 191 187 195 200 202 205 203 201 201 200 201 198 197 197 198 198 198
333 339 340 331 323 315 303 301 294 280 272 269 275 265 266 279 285 256 222 227 222 211 187 207 215 216 200 187 192 195 196 196 198 200 201 200 201 201 199 200 200 200 202
337 346 338 326 316 311 299 290 285 278 278 274 262 278 272 281 281 257 267 240 215 234 186 214 216 220 196 199 191 196 187 194 193 196 200 200 201 204 203 202 202 203 203
340 346 338 331 321 316 309 301 286 273 271 260 259 261 269 257 280 267 245 250 211 219 208 196 213 215 217 192 199 196 188 192 193 197 198 199 200 203 204 205 204 205 205
347 343 343 339 332 330 325 312 294 284 258 258 258 252 255 259 261 272 260 242 226 258 220 211 215 214 219 219 214 190 188 193 193 195 198 196 199 200 204 206 206 207 207
346 345 347 346 342 340 339 326 305 293 262 249 249 250 257 264 262 262 270 245 237 224 232 247 231 215 222 242 242 198 192 192 194 197 196 195 194 195 198 203 206 206 208
351 349 354 354 354 352 351 345 342 342 337 257 280 288 287 258 266 261 263 255 220 228 227 218 220 222 228 216 227 231 210 202 197 194 195 194 193 192 194 198 201 203 204
1 354 355 358 0 1 359 354 2 360 355 356 2 338 345 338 313 340 280 262 237 238 247 192 207 209 211 227 231 233 221 195 199 195 194 192 193 192 194 196 198 197 200
8 5 353 1 4 10 5 7 10 7 6 4 10 358 11 344 357 6 356 344 347 280 255 265 275 210 231 231 233 227 225 200 197 199 195 193 194 194 195 196 197 197 198
10 13 4 359 9 15 15 10 11 6 11 8 13 11 15 8 14 17 356 18 4 328 352 294 264 262 198 33 65 51 20 268 197 202 198 196 191 191 194 194 195 196 199
15 17 14 5 9 14 20 15 10 12 13 13 8 19 22 18 24 17 25 27 1 347 356 296 333 360 12 81 165 82 30 25 10 314 191 200 189 190 141 117 138 178 196
21 18 25 12 6 20 22 18 16 16 13 14 16 16 17 28 34 20 28 26 16 20 16 19 20 29 348 357 353 6 81 51 35 354 42 91 94 81 79 77 71 81 226
24 26 25 23 14 13 31 29 22 19 19 17 15 18 17 26 37 35 37 32 30 34 35 32 39 28 8 7 341 356 310 146 86 62 336 75 74 71 65 65 64 57 54
42 23 28 28 23 16 23 37 38 29 26 27 22 21 21 19 20 33 37 45 45 40 43 41 39 29 19 358 333 333 319 47 106 66 320 24 53 63 64 66 68 60 56
37 40 26 32 27 25 20 30 37 33 29 25 28 23 26 22 19 21 30 34 39 42 43 40 41 31 21 1 344 350 28 46 41 17 88 8 30 55 63 71 72 66 58
44 35 35 26 31 27 27 24 30 30 37 32 24 31 27 24 26 21 21 29 35 33 34 35 33 30 28 15 8 337 344 89 71 32 5 75 25 8 40 50 63 55 57
37 46 41 35 30 27 30 28 22 31 28 34 30 25 35 31 32 30 26 28 29 31 25 31 36 32 30 29 20 5 25 10 74 23 6 50 354 13 38 37 44 47 49
23 51 53 53 41 26 26 28 28 20 28 24 27 26 31 34 35 35 31 25 27 17 15 17 23 20 26 21 18 23 16 23 44 47 354 23 347 356 31 45 25 30 28